Location: Makakahi
(40.6833°S, 175.6000°E)
Time: 07:56:56
(UTC+00:00)

DMSP F15 (USA 147) - Pass Details

Date: 08 December 2024
Orbit: 827 x 842 km, 99.1° (Epoch: 18 January)

Event Time Altitude Azimuth Distance (km) Brightness Sun altitude
Rises 08:55:29 0° 180° (S) 3,434 9.1 -12.1°
Reaches altitude 10° 08:58:23 10° 195° (SSW) 2,493 8.7 -12.5°
Maximum altitude 09:02:24 21° 242° (WSW) 1,822 7.9 -13.1°
Drops below altitude 10° 09:06:24 10° 289° (WNW) 2,474 7.9 -13.6°
Sets 09:09:17 0° 304° (NW) 3,400 8.5 -14.0°
